When you browse on this site, cookies collect data to enhance your experience and personalize the content and advertising you see.
Visit our Privacy Policy to learn more. By continuing to use the site, you agree to this use of cookies and data.
  • In Schweiz
  • Länderverzeichnis
  • Für 7 Tage
  • Wassertemperatur
  • Wetterkarte
  • Widgets
  • user-avatar
    Anmelden

    Stündliche Wetter Matlock

    Heute, 26 Januar, Sonntag

    Zeit Temperatur Niederschläge Wind Luftdruck Luftfeuchtigkeit
    00:00 +4°C° 0 mm 4 m/S 741 mmHg 92%
    01:00 +4°C° 0 mm 4 m/S 741 mmHg 92%
    02:00 +3°C° 0 mm 5 m/S 740 mmHg 92%
    03:00 +3°C° 0 mm 5 m/S 740 mmHg 93%
    04:00 +3°C° 0 mm 5 m/S 739 mmHg 93%
    05:00 +5°C° 0 mm 5 m/S 739 mmHg 93%
    06:00 +5°C° 0 mm 5 m/S 739 mmHg 88%
    07:00 +3°C° 0 mm 6 m/S 739 mmHg 89%
    08:00 +3°C° 0 mm 6 m/S 738 mmHg 90%
    09:00 +3°C° 0 mm 6 m/S 738 mmHg 90%
    10:00 +4°C° 0.1 mm 7 m/S 737 mmHg 88%
    11:00 +4°C° 0.1 mm 7 m/S 737 mmHg 86%
    12:00 +5°C° 0 mm 8 m/S 737 mmHg 86%
    13:00 +5°C° 1.3 mm 7 m/S 736 mmHg 88%
    14:00 +5°C° 1.3 mm 7 m/S 736 mmHg 91%
    15:00 +5°C° 1.3 mm 6 m/S 736 mmHg 93%
    16:00 +6°C° 0.7 mm 5 m/S 735 mmHg 93%
    17:00 +5°C° 0.7 mm 4 m/S 735 mmHg 93%
    18:00 +6°C° 0.7 mm 2 m/S 735 mmHg 93%
    19:00 +5°C° 0 mm 2 m/S 735 mmHg 92%
    20:00 +5°C° 0 mm 2 m/S 735 mmHg 92%
    21:00 +4°C° 0 mm 2 m/S 735 mmHg 92%
    22:00 +3°C° 0 mm 3 m/S 735 mmHg 93%
    23:00 +2°C° 0 mm 3 m/S 734 mmHg 93%

    Morgen, 27 Januar, Montag

    Zeit Temperatur Niederschläge Wind Luftdruck Luftfeuchtigkeit
    00:00 +2°C° 0 mm 3 m/S 734 mmHg 93%
    01:00 +1°C° 0.1 mm 4 m/S 734 mmHg 93%
    02:00 +2°C° 0.1 mm 5 m/S 733 mmHg 93%
    03:00 +2°C° 0.1 mm 6 m/S 733 mmHg 92%
    04:00 +2°C° 0.4 mm 6 m/S 732 mmHg 91%
    05:00 +2°C° 0.4 mm 6 m/S 732 mmHg 90%
    06:00 +2°C° 0.4 mm 6 m/S 732 mmHg 88%
    07:00 +2°C° 0.3 mm 5 m/S 732 mmHg 89%
    08:00 +2°C° 0.3 mm 5 m/S 732 mmHg 90%
    09:00 +2°C° 0.3 mm 5 m/S 732 mmHg 91%
    10:00 +2°C° 0.1 mm 5 m/S 732 mmHg 88%
    11:00 +3°C° 0.1 mm 5 m/S 731 mmHg 84%
    12:00 +3°C° 0.1 mm 5 m/S 731 mmHg 80%
    13:00 +3°C° 0.1 mm 5 m/S 731 mmHg 79%
    14:00 +4°C° 0.1 mm 4 m/S 730 mmHg 78%
    15:00 +4°C° 0.1 mm 4 m/S 730 mmHg 76%
    16:00 +3°C° 0 mm 3 m/S 729 mmHg 80%
    17:00 +2°C° 0 mm 3 m/S 728 mmHg 85%
    18:00 +1°C° 0 mm 3 m/S 728 mmHg 89%
    19:00 +1°C° 0 mm 3 m/S 727 mmHg 90%
    20:00 +1°C° 0 mm 3 m/S 726 mmHg 92%
    21:00 +1°C° 0 mm 3 m/S 725 mmHg 93%
    22:00 0°C° 0.6 mm 4 m/S 725 mmHg 93%
    23:00 0°C° 0.6 mm 4 m/S 724 mmHg 94%

    übermorgen, 28 Januar, Dienstag

    Zeit Temperatur Niederschläge Wind Luftdruck Luftfeuchtigkeit
    00:00 0°C° 0.6 mm 5 m/S 723 mmHg 94%
    01:00 -1°C° 0.1 mm 6 m/S 723 mmHg 91%
    02:00 -2°C° 0.1 mm 6 m/S 723 mmHg 89%
    03:00 -2°C° 0.1 mm 7 m/S 723 mmHg 86%
    04:00 -2°C° 1.1 mm 8 m/S 723 mmHg 86%
    05:00 -3°C° 1.1 mm 10 m/S 724 mmHg 85%
    06:00 -3°C° 1.1 mm 11 m/S 724 mmHg 85%
    07:00 -3°C° 0 mm 10 m/S 725 mmHg 83%
    08:00 -3°C° 0 mm 9 m/S 726 mmHg 81%
    09:00 -2°C° 0 mm 8 m/S 726 mmHg 80%
    10:00 -1°C° 0 mm 8 m/S 727 mmHg 80%
    11:00 0°C° 0 mm 8 m/S 727 mmHg 81%
    12:00 0°C° 0 mm 8 m/S 727 mmHg 82%
    13:00 0°C° 0.1 mm 8 m/S 727 mmHg 81%
    14:00 0°C° 0.1 mm 7 m/S 728 mmHg 81%
    15:00 0°C° 0.1 mm 7 m/S 728 mmHg 81%
    16:00 0°C° 0 mm 7 m/S 728 mmHg 83%
    17:00 -1°C° 0 mm 7 m/S 729 mmHg 84%
    18:00 -1°C° 0 mm 6 m/S 729 mmHg 86%
    19:00 -1°C° 0 mm 6 m/S 730 mmHg 85%
    20:00 -1°C° 0 mm 7 m/S 731 mmHg 85%
    21:00 -1°C° 0 mm 7 m/S 731 mmHg 85%
    22:00 -1°C° 0 mm 7 m/S 732 mmHg 84%
    23:00 -1°C° 0 mm 7 m/S 733 mmHg 83%

    29 Januar, Mittwoch

    Zeit Temperatur Niederschläge Wind Luftdruck Luftfeuchtigkeit
    00:00 -2°C° 0 mm 7 m/S 733 mmHg 81%
    01:00 -2°C° 0 mm 7 m/S 734 mmHg 81%
    02:00 -2°C° 0 mm 6 m/S 735 mmHg 80%
    03:00 -2°C° 0 mm 6 m/S 735 mmHg 80%
    04:00 -2°C° 0 mm 6 m/S 736 mmHg 80%
    05:00 -2°C° 0 mm 6 m/S 736 mmHg 81%
    06:00 -3°C° 0 mm 6 m/S 737 mmHg 81%
    07:00 -2°C° 0 mm 6 m/S 738 mmHg 82%
    08:00 -2°C° 0 mm 6 m/S 738 mmHg 83%
    09:00 -2°C° 0 mm 6 m/S 739 mmHg 84%
    10:00 -1°C° 0 mm 6 m/S 739 mmHg 82%
    11:00 +1°C° 0 mm 6 m/S 740 mmHg 79%
    12:00 +2°C° 0 mm 6 m/S 740 mmHg 76%
    13:00 +2°C° 0 mm 6 m/S 740 mmHg 78%
    14:00 +2°C° 0 mm 5 m/S 740 mmHg 80%
    15:00 +2°C° 0 mm 5 m/S 741 mmHg 81%
    16:00 +2°C° 0 mm 5 m/S 741 mmHg 84%
    17:00 +2°C° 0 mm 6 m/S 741 mmHg 86%
    18:00 +2°C° 0 mm 6 m/S 741 mmHg 89%
    19:00 +2°C° 0 mm 6 m/S 741 mmHg 88%
    20:00 +3°C° 0 mm 6 m/S 741 mmHg 88%
    21:00 +3°C° 0 mm 6 m/S 741 mmHg 88%
    22:00 +3°C° 0 mm 6 m/S 741 mmHg 88%
    23:00 +3°C° 0 mm 6 m/S 741 mmHg 88%

    30 Januar, Donnerstag

    Zeit Temperatur Niederschläge Wind Luftdruck Luftfeuchtigkeit
    00:00 +2°C° 0 mm 7 m/S 740 mmHg 88%
    01:00 +2°C° 0 mm 6 m/S 740 mmHg 89%
    02:00 +2°C° 0 mm 6 m/S 740 mmHg 90%
    03:00 +2°C° 0 mm 6 m/S 740 mmHg 91%
    04:00 +2°C° 0 mm 5 m/S 739 mmHg 91%
    05:00 +1°C° 0 mm 4 m/S 739 mmHg 92%
    06:00 +2°C° 0 mm 3 m/S 738 mmHg 92%
    07:00 +2°C° 0 mm 3 m/S 738 mmHg 93%
    08:00 +2°C° 0 mm 3 m/S 737 mmHg 93%
    09:00 +2°C° 0 mm 3 m/S 737 mmHg 94%
    10:00 +1°C° 0.1 mm 4 m/S 735 mmHg 92%
    11:00 +3°C° 0.1 mm 4 m/S 734 mmHg 90%
    12:00 +2°C° 0.1 mm 5 m/S 733 mmHg 88%
    13:00 +3°C° 0.6 mm 4 m/S 732 mmHg 91%
    14:00 +3°C° 0.6 mm 3 m/S 731 mmHg 94%
    15:00 +4°C° 0.6 mm 2 m/S 730 mmHg 97%
    16:00 +4°C° 0 mm 2 m/S 730 mmHg 97%
    17:00 +4°C° 0 mm 2 m/S 730 mmHg 97%
    18:00 +4°C° 0 mm 2 m/S 730 mmHg 97%
    19:00 +4°C° 0 mm 3 m/S 730 mmHg 95%
    20:00 +5°C° 0 mm 4 m/S 731 mmHg 94%
    21:00 +5°C° 0 mm 6 m/S 731 mmHg 92%
    22:00 +5°C° 0 mm 6 m/S 732 mmHg 91%
    23:00 +4°C° 0 mm 6 m/S 733 mmHg 91%

    31 Januar, Freitag

    Zeit Temperatur Niederschläge Wind Luftdruck Luftfeuchtigkeit
    00:00 +4°C° 0 mm 6 m/S 733 mmHg 91%
    01:00 +5°C° 0 mm 5 m/S 734 mmHg 91%
    02:00 +3°C° 0 mm 5 m/S 734 mmHg 91%
    03:00 +3°C° 0 mm 5 m/S 735 mmHg 91%
    04:00 +3°C° 0 mm 5 m/S 735 mmHg 91%
    05:00 +3°C° 0 mm 5 m/S 735 mmHg 92%
    06:00 +3°C° 0 mm 6 m/S 735 mmHg 92%
    07:00 +4°C° 0 mm 6 m/S 735 mmHg 92%
    08:00 +5°C° 0 mm 6 m/S 736 mmHg 92%
    09:00 +7°C° 0 mm 6 m/S 736 mmHg 92%
    10:00 +6°C° 0.1 mm 7 m/S 735 mmHg 91%
    11:00 +7°C° 0.1 mm 8 m/S 735 mmHg 90%
    12:00 +8°C° 0.1 mm 9 m/S 735 mmHg 89%
    13:00 +9°C° 0.1 mm 8 m/S 735 mmHg 89%
    14:00 +10°C° 0.1 mm 8 m/S 734 mmHg 89%
    15:00 +10°C° 0.1 mm 7 m/S 734 mmHg 89%
    16:00 +9°C° 0 mm 7 m/S 734 mmHg 88%
    17:00 +9°C° 0 mm 8 m/S 734 mmHg 87%
    18:00 +9°C° 0 mm 8 m/S 734 mmHg 86%
    19:00 +7°C° 0 mm 8 m/S 734 mmHg 86%
    20:00 +7°C° 0 mm 8 m/S 734 mmHg 87%
    21:00 +7°C° 0 mm 8 m/S 734 mmHg 87%
    22:00 +7°C° 0 mm 8 m/S 734 mmHg 86%
    23:00 +6°C° 0 mm 8 m/S 734 mmHg 85%
    Mehr zeigen